Weather History for Greenwood, SC

Change the Weather History Date:

Friday, February 15, 2013

  Actual Average (KAND) Record (KAND)
Temperature  
Mean Temperature 45 °F -  
Max Temperature 62 °F 59 °F 76 °F (1989)
Min Temperature 28 °F 37 °F 18 °F (1960)
Degree Days  
Heating Degree Days 20    
Moisture  
Dew Point 31 °F    
Average Humidity 65    
Maximum Humidity 96    
Minimum Humidity 29    
Precipitation  
Precipitation 0.00 in - - ()
Sea Level Pressure  
Sea Level Pressure 30.05 in    
Wind  
Wind Speed 2 mph (WSW)    
Max Wind Speed 8 mph    
Max Gust Speed 18 mph    
Visibility 9 miles    
Events      
Averages and records for this station are not official NWS values.
T = Trace of Precipitation, MM = Missing Value Source: NWS Daily Summary

Daily Weather History Graph

Daily Weather History Graph

Search for Another Location

Airport:

Trip Planner

Search our weather history database for the weather conditions in past years. The results will help you decide how hot, cold, wet, or windy it might be!

Date:

Astronomy

Feb. 15, 2013 Rise Set
Actual Time 7:13 AM EST 6:12 PM EST
Civil Twilight 6:47 AM EST 6:38 PM EST
Nautical Twilight 6:18 AM EST 7:07 PM EST
Astronomical Twilight 5:49 AM EST 7:36 PM EST
Moon 10:06 AM EST (2/15) 11:53 PM EST (2/15)
Length of Visible Light 11h 50m
Length of Day
10h 59m
Waxing Crescent, 30% of the Moon is Illuminated
Feb 15
Waxing Crescent
Feb 17
First Quarter
Feb 25
Full
Mar 4
Last Quarter
Mar 11
New

Hourly Weather History & Observations

Time (EST) Temp. Windchill Dew Point Humidity Pressure Visibility Wind Dir Wind Speed Gust Speed Precip Events Conditions
12:56 AM 33.1 °F - 32.0 °F 96% 30.09 in 7.0 mi Calm Calm - N/A   Clear
1:56 AM 32.0 °F - 30.0 °F 92% 30.08 in 4.0 mi Calm Calm - N/A   Clear
2:56 AM 30.0 °F 26.5 °F 28.9 °F 96% 30.07 in 6.0 mi NW 3.5 mph - N/A   Clear
3:56 AM 30.0 °F - 28.9 °F 96% 30.07 in 9.0 mi Calm Calm - N/A   Clear
4:56 AM 28.9 °F - 28.0 °F 96% 30.07 in 9.0 mi Calm Calm - N/A   Clear
5:56 AM 28.9 °F - 28.0 °F 96% 30.09 in 7.0 mi Calm Calm - N/A   Clear
6:56 AM 30.0 °F - 28.0 °F 92% 30.11 in 7.0 mi Calm Calm - N/A   Clear
7:56 AM 30.0 °F - 28.9 °F 96% 30.12 in 7.0 mi Calm Calm - N/A   Clear
8:56 AM 39.9 °F - 37.0 °F 89% 30.13 in 10.0 mi Calm Calm - N/A   Clear
9:56 AM 46.9 °F - 39.0 °F 74% 30.13 in 10.0 mi Calm Calm - N/A   Clear
10:56 AM 52.0 °F - 37.0 °F 57% 30.12 in 10.0 mi Calm Calm - N/A   Clear
11:56 AM 57.9 °F - 32.0 °F 37% 30.11 in 10.0 mi SSW 8.1 mph - N/A   Clear
12:56 PM 60.1 °F - 30.0 °F 32% 30.08 in 10.0 mi WNW 5.8 mph - N/A   Clear
1:56 PM 60.1 °F - 28.9 °F 31% 30.04 in 10.0 mi SW 4.6 mph - N/A   Clear
2:56 PM 62.1 °F - 30.0 °F 30% 30.00 in 10.0 mi SSW 5.8 mph - N/A   Clear
3:56 PM 62.1 °F - 28.9 °F 29% 29.99 in 10.0 mi West 5.8 mph - N/A   Clear
4:56 PM 61.0 °F - 30.0 °F 31% 29.98 in 10.0 mi WSW 6.9 mph 18.4 mph N/A   Clear
6:56 PM 53.1 °F - 32.0 °F 45% 29.98 in 10.0 mi SSW 4.6 mph - N/A   Clear
7:56 PM 53.1 °F - 32.0 °F 45% 29.98 in 10.0 mi SSW 3.5 mph - N/A   Clear
8:56 PM 48.0 °F - 33.1 °F 56% 29.98 in 10.0 mi Calm Calm - N/A   Clear
9:56 PM 44.1 °F 40.8 °F 33.1 °F 65% 29.99 in 10.0 mi West 5.8 mph - N/A   Clear
10:56 PM 48.9 °F - 33.1 °F 54% 29.99 in 10.0 mi Calm Calm - N/A   Overcast
11:56 PM 44.1 °F 40.8 °F 35.1 °F 71% 29.98 in 10.0 mi North 5.8 mph - N/A   Overcast